Location: Unspecified
(0.0000°N, 0.0000°E)
Time: 12:03:15
(UTC+00:00)

STARLINK-36491 - Pass Details

Date: 21 February 2026
Orbit: 482 x 484 km, 43.0° (Epoch: 8 March)

Event Time Altitude Azimuth Distance (km) Brightness Sun altitude
Exits shadow 05:14:24 10° 338° (NNW) 1,668 ? -14.6°
Reaches altitude 10° 05:14:24 10° 338° (NNW) 1,667 ? -14.6°
Maximum altitude 05:17:55 36° 46° (NE) 788 ? -13.7°
Drops below altitude 10° 05:21:26 10° 113° (ESE) 1,669 ? -12.8°
Sets 05:23:45 0° 122° (ESE) 2,550 ? -12.3°
